• In Uzbekistan
  • List of Countries
  • For 7 days
  • Water Temperature
  • Weather Map
  • Weather Widgets
  • user-avatar
    Login

    Hourly Weather Córdoba

    Today, 29 January, Wednesday

    Time Temperature Precipitation Wind Pressure Humidity
    00:00 +25°C° 0 mm 2 mps 718 mmHg 59%
    01:00 +25°C° 0 mm 2 mps 718 mmHg 60%
    02:00 +24°C° 0 mm 1 mps 718 mmHg 62%
    03:00 +22°C° 0.5 mm 3 mps 719 mmHg 68%
    04:00 +20°C° 0.5 mm 4 mps 719 mmHg 73%
    05:00 +19°C° 0.5 mm 5 mps 719 mmHg 79%
    06:00 +20°C° 0.1 mm 5 mps 720 mmHg 75%
    07:00 +21°C° 0.1 mm 5 mps 721 mmHg 71%
    08:00 +22°C° 0.1 mm 5 mps 721 mmHg 67%
    09:00 +24°C° 0 mm 6 mps 722 mmHg 60%
    10:00 +27°C° 0 mm 6 mps 722 mmHg 52%
    11:00 +29°C° 0 mm 6 mps 723 mmHg 44%
    12:00 +30°C° 0 mm 6 mps 722 mmHg 43%
    13:00 +30°C° 0 mm 6 mps 722 mmHg 42%
    14:00 +32°C° 0 mm 5 mps 722 mmHg 40%
    15:00 +28°C° 2.1 mm 5 mps 722 mmHg 54%
    16:00 +25°C° 2.1 mm 5 mps 721 mmHg 68%
    17:00 +21°C° 2.1 mm 5 mps 721 mmHg 82%
    18:00 +21°C° 0.4 mm 4 mps 721 mmHg 79%
    19:00 +21°C° 0.4 mm 2 mps 722 mmHg 77%
    20:00 +22°C° 0.4 mm 1 mps 722 mmHg 74%
    21:00 +22°C° 0 mm 1 mps 723 mmHg 72%
    22:00 +21°C° 0 mm 2 mps 723 mmHg 70%
    23:00 +23°C° 0 mm 2 mps 724 mmHg 67%

    Tomorrow, 30 January, Thursday

    Time Temperature Precipitation Wind Pressure Humidity
    00:00 +21°C° 0 mm 2 mps 723 mmHg 66%
    01:00 +21°C° 0 mm 2 mps 723 mmHg 65%
    02:00 +21°C° 0 mm 2 mps 723 mmHg 63%
    03:00 +20°C° 0 mm 2 mps 723 mmHg 63%
    04:00 +20°C° 0 mm 2 mps 723 mmHg 62%
    05:00 +20°C° 0 mm 2 mps 723 mmHg 61%
    06:00 +23°C° 0 mm 2 mps 724 mmHg 56%
    07:00 +24°C° 0 mm 1 mps 724 mmHg 51%
    08:00 +26°C° 0 mm 1 mps 725 mmHg 45%
    09:00 +29°C° 0 mm 1 mps 725 mmHg 39%
    10:00 +31°C° 0 mm 1 mps 725 mmHg 33%
    11:00 +33°C° 0 mm 1 mps 725 mmHg 27%
    12:00 +34°C° 0 mm 1 mps 725 mmHg 24%
    13:00 +36°C° 0 mm 2 mps 724 mmHg 21%
    14:00 +36°C° 0 mm 2 mps 723 mmHg 18%
    15:00 +36°C° 0 mm 2 mps 723 mmHg 18%
    16:00 +36°C° 0 mm 2 mps 722 mmHg 18%
    17:00 +36°C° 0 mm 2 mps 721 mmHg 18%
    18:00 +32°C° 0 mm 2 mps 721 mmHg 22%
    19:00 +30°C° 0 mm 2 mps 721 mmHg 26%
    20:00 +27°C° 0 mm 1 mps 721 mmHg 30%
    21:00 +26°C° 0 mm 1 mps 722 mmHg 31%
    22:00 +25°C° 0 mm 1 mps 722 mmHg 33%
    23:00 +24°C° 0 mm 1 mps 723 mmHg 34%

    Day after tomorrow, 31 January, Friday

    Time Temperature Precipitation Wind Pressure Humidity
    00:00 +24°C° 0 mm 1 mps 722 mmHg 34%
    01:00 +23°C° 0 mm 1 mps 722 mmHg 34%
    02:00 +23°C° 0 mm 1 mps 722 mmHg 34%
    03:00 +23°C° 0 mm 1 mps 722 mmHg 35%
    04:00 +23°C° 0 mm 1 mps 722 mmHg 36%
    05:00 +22°C° 0 mm 1 mps 722 mmHg 37%
    06:00 +25°C° 0 mm 2 mps 722 mmHg 36%
    07:00 +27°C° 0 mm 2 mps 723 mmHg 35%
    08:00 +29°C° 0 mm 2 mps 723 mmHg 34%
    09:00 +31°C° 0 mm 2 mps 723 mmHg 30%
    10:00 +34°C° 0 mm 2 mps 723 mmHg 25%
    11:00 +36°C° 0 mm 2 mps 723 mmHg 21%
    12:00 +37°C° 0 mm 3 mps 723 mmHg 19%
    13:00 +38°C° 0 mm 3 mps 722 mmHg 17%
    14:00 +40°C° 0 mm 4 mps 722 mmHg 16%
    15:00 +38°C° 0 mm 4 mps 721 mmHg 17%
    16:00 +38°C° 0 mm 4 mps 721 mmHg 17%
    17:00 +39°C° 0 mm 5 mps 720 mmHg 18%
    18:00 +35°C° 0 mm 4 mps 720 mmHg 23%
    19:00 +32°C° 0 mm 4 mps 720 mmHg 27%
    20:00 +29°C° 0 mm 4 mps 720 mmHg 32%
    21:00 +28°C° 0 mm 3 mps 721 mmHg 35%
    22:00 +27°C° 0 mm 3 mps 721 mmHg 38%
    23:00 +26°C° 0 mm 3 mps 722 mmHg 40%

    1 February, Saturday

    Time Temperature Precipitation Wind Pressure Humidity
    00:00 +26°C° 0 mm 3 mps 721 mmHg 41%
    01:00 +25°C° 0 mm 3 mps 721 mmHg 41%
    02:00 +25°C° 0 mm 3 mps 721 mmHg 41%
    03:00 +25°C° 0 mm 2 mps 721 mmHg 42%
    04:00 +25°C° 0 mm 2 mps 721 mmHg 43%
    05:00 +24°C° 0 mm 2 mps 721 mmHg 44%
    06:00 +26°C° 0 mm 3 mps 721 mmHg 40%
    07:00 +28°C° 0 mm 3 mps 722 mmHg 37%
    08:00 +30°C° 0 mm 4 mps 722 mmHg 34%
    09:00 +33°C° 0 mm 4 mps 722 mmHg 30%
    10:00 +35°C° 0 mm 4 mps 721 mmHg 27%
    11:00 +37°C° 0 mm 4 mps 721 mmHg 24%
    12:00 +37°C° 0 mm 4 mps 721 mmHg 22%
    13:00 +38°C° 0 mm 4 mps 720 mmHg 21%
    14:00 +40°C° 0 mm 4 mps 719 mmHg 19%
    15:00 +40°C° 0 mm 4 mps 719 mmHg 20%
    16:00 +40°C° 0 mm 4 mps 718 mmHg 20%
    17:00 +40°C° 0 mm 4 mps 718 mmHg 21%
    18:00 +37°C° 0 mm 4 mps 718 mmHg 26%
    19:00 +34°C° 0 mm 4 mps 718 mmHg 30%
    20:00 +32°C° 0 mm 4 mps 718 mmHg 34%
    21:00 +30°C° 0 mm 4 mps 718 mmHg 36%
    22:00 +28°C° 0 mm 3 mps 719 mmHg 38%
    23:00 +27°C° 0 mm 3 mps 719 mmHg 40%

    2 February, Sunday

    Time Temperature Precipitation Wind Pressure Humidity
    00:00 +27°C° 0.1 mm 3 mps 719 mmHg 44%
    01:00 +27°C° 0.1 mm 3 mps 719 mmHg 48%
    02:00 +26°C° 0.1 mm 2 mps 719 mmHg 52%
    03:00 +26°C° 0 mm 2 mps 719 mmHg 55%
    04:00 +26°C° 0 mm 2 mps 719 mmHg 58%
    05:00 +25°C° 0 mm 2 mps 719 mmHg 61%
    06:00 +28°C° 0 mm 2 mps 720 mmHg 56%
    07:00 +30°C° 0 mm 2 mps 720 mmHg 51%
    08:00 +33°C° 0 mm 3 mps 721 mmHg 46%
    09:00 +35°C° 0 mm 3 mps 721 mmHg 39%
    10:00 +37°C° 0 mm 3 mps 721 mmHg 32%
    11:00 +40°C° 0 mm 3 mps 721 mmHg 25%
    12:00 +40°C° 0 mm 3 mps 721 mmHg 24%
    13:00 +41°C° 0 mm 4 mps 720 mmHg 23%
    14:00 +42°C° 0 mm 4 mps 719 mmHg 22%
    15:00 +42°C° 0 mm 4 mps 719 mmHg 23%
    16:00 +41°C° 0 mm 4 mps 719 mmHg 23%
    17:00 +41°C° 0 mm 4 mps 718 mmHg 24%
    18:00 +38°C° 0.1 mm 4 mps 718 mmHg 29%
    19:00 +35°C° 0.1 mm 4 mps 719 mmHg 33%
    20:00 +33°C° 0.1 mm 4 mps 719 mmHg 38%
    21:00 +31°C° 0 mm 3 mps 719 mmHg 39%
    22:00 +30°C° 0 mm 3 mps 719 mmHg 41%
    23:00 +29°C° 0 mm 3 mps 720 mmHg 42%

    3 February, Monday

    Time Temperature Precipitation Wind Pressure Humidity
    00:00 +29°C° 0 mm 2 mps 720 mmHg 44%
    01:00 +28°C° 0 mm 2 mps 719 mmHg 45%
    02:00 +28°C° 0 mm 2 mps 719 mmHg 47%
    03:00 +28°C° 0 mm 2 mps 719 mmHg 48%
    04:00 +28°C° 0 mm 2 mps 719 mmHg 49%
    05:00 +28°C° 0 mm 2 mps 719 mmHg 49%
    06:00 +29°C° 0 mm 2 mps 720 mmHg 47%
    07:00 +31°C° 0 mm 3 mps 720 mmHg 44%
    08:00 +33°C° 0 mm 3 mps 721 mmHg 41%
    09:00 +35°C° 0 mm 4 mps 721 mmHg 37%
    10:00 +37°C° 0 mm 5 mps 720 mmHg 33%
    11:00 +40°C° 0 mm 7 mps 720 mmHg 29%
    12:00 +41°C° 0 mm 7 mps 719 mmHg 27%
    13:00 +43°C° 0 mm 7 mps 719 mmHg 25%
    14:00 +44°C° 0 mm 7 mps 718 mmHg 23%
    15:00 +44°C° 0 mm 7 mps 717 mmHg 23%
    16:00 +43°C° 0 mm 7 mps 717 mmHg 23%
    17:00 +43°C° 0 mm 7 mps 716 mmHg 24%
    18:00 +40°C° 0.1 mm 6 mps 716 mmHg 28%
    19:00 +38°C° 0.1 mm 6 mps 716 mmHg 33%
    20:00 +35°C° 0.1 mm 5 mps 717 mmHg 37%
    21:00 +34°C° 0.1 mm 5 mps 717 mmHg 42%
    22:00 +33°C° 0.1 mm 5 mps 717 mmHg 46%
    23:00 +32°C° 0.1 mm 5 mps 717 mmHg 51%
    Show more